Location: Olsztyn
(53.7767°N, 20.4765°E)
Time: 04:22:12
(UTC+01:00)

SR - Visible Passes

Search period start: 28 January 2022 00:00
Search period end: 07 February 2022 00:00
Orbit: 582 x 872 km, 66.7° (Epoch: 27 January)

Date Brightness Start Highest point End Pass type
(mag) Time Alt. Az. Time Alt. Az. Time Alt. Az.
28 Jan ? 17:17:50 10° NW 17:22:26 82° NE 17:27:26 10° SE visible
28 Jan ? 19:00:34 10° WNW 19:04:02 20° WSW 19:07:40 10° SSW visible
29 Jan ? 18:10:08 10° NW 18:14:23 36° WSW 18:18:57 10° S visible
30 Jan ? 17:20:02 10° NW 17:24:36 63° SW 17:29:35 10° SSE visible
30 Jan ? 19:04:04 10° W 19:05:52 12° WSW 19:07:43 10° SW visible
31 Jan ? 18:12:44 10° WNW 18:16:21 22° WSW 18:20:10 10° SSW visible
01 Feb ? 17:22:21 10° NW 17:26:41 38° WSW 17:31:21 10° S visible
02 Feb ? 18:16:00 10° W 18:18:12 13° WSW 18:20:27 10° SW visible
03 Feb ? 17:24:54 10° WNW 17:28:39 23° WSW 17:32:39 10° SSW visible
05 Feb ? 17:28:00 10° WNW 17:30:31 14° WSW 17:33:06 10° SW visible
06 Feb ? 06:23:12 10° SE 06:25:33 15° ESE 06:27:56 10° ENE visible
